Regional Weather Roundup
Issued by NWS

Home | Current Version | Previous Version | Text Only | Print | Product List | Glossary Off
Versions: 1 2 3 4 5 6 7 8 9 10 11 12 13 14 15 16 17 18 19 20 21 22 23 24 25 26 27 28 29 30 31 32 33 34 35 36 37 38 39 40 41 42 43 44 45 46 47 48 49 50

000
ASUS43 KLMK 012102
RWRKY
KENTUCKY REGIONAL WEATHER ROUNDUP
NATIONAL WEATHER SERVICE LOUISVILLE KY
500 PM EDT WED JUL 01 2015

NOTE "FAIR" INDICATES FEW OR NO CLOUDS BELOW 12,000 FEET
WITH NO SIGNIFICANT WEATHER AND/OR OBSTRUCTIONS TO VISIBILITY.

KYZ001>023-026-027-061>063-070>075-012200-
WESTERN AND SOUTH CENTRAL KENTUCKY

CITY           SKY/WX    TMP DP  RH WIND       PRES   REMARKS
PADUCAH        MOSUNNY   82  69  64 S9        29.89S
HENDERSON      PTSUNNY   81  66  61 E3        29.85F
OWENSBORO      PTSUNNY   80  69  69 CALM      29.89F
HOPKINSVILLE   PTSUNNY   79  68  68 SW7       29.92F
BOWLING GREEN  PTSUNNY   83  67  58 CALM      29.92F
GLASGOW        NOT AVBL
$$

KYZ024-025-028>034-038-045-046-053-012200-
NORTH CENTRAL KENTUCKY

CITY           SKY/WX    TMP DP  RH WIND       PRES   REMARKS
LOUISVILLE/SDF CLOUDY    77  69  76 CALM      29.89F
LOUISVILLE/LOU CLOUDY    75  68  78 VRB5      29.91F
FORT KNOX      CLOUDY    73  70  88 W7        29.90F
$$

KYZ035>037-039>044-047>052-055>060-089>105-012200-
NORTHEAST KENTUCKY

CITY           SKY/WX    TMP DP  RH WIND       PRES   REMARKS
LEXINGTON      RAIN      72  70  93 W6        29.93S FOG
COVINGTON      CLOUDY    78  63  59 W3        29.91F
FRANKFORT      CLOUDY    70  67  90 SW7       29.91F FOG
$$

KYZ054-064>069-076>088-106>120-012200-
SOUTHEAST KENTUCKY

CITY           SKY/WX    TMP DP  RH WIND       PRES   REMARKS
JACKSON        CLOUDY    75  68  78 VRB3      29.96S HAZE
LONDON         LGT RAIN  74  67  78 SW7       29.98S
SOMERSET       NOT AVBL
MIDDLESBORO    NOT AVBL
MONTICELLO     CLOUDY    79  72  79 SW9       29.98F
$$




USA.gov is the U.S. government's official web portal to all federal, state and local government web resources and services.